This is the latest recevied weather packets stored in our database for station/object AF5AA. If no packets are shown the sender has not sent any weather packets the latest 10 day(s).
| Time | Temp. | Humidity | Pressure | Rain* | Wind** | Luminosity | Snow |
|---|---|---|---|---|---|---|---|
| 1778004656 | 26.11° C | 78% | 1006.7 hPa | 0 mm | - | 107 W/m² | - |
| 1778004351 | 26.67° C | 78% | 1006.7 hPa | 0 mm | - | 91 W/m² | - |
| 1778004049 | 26.11° C | 79% | 1006.7 hPa | 0 mm | - | 143 W/m² | - |
| 1778003744 | 26.11° C | 79% | 1006.7 hPa | 0 mm | - | 116 W/m² | - |
| 1778003441 | 26.11° C | 78% | 1006.6 hPa | 0 mm | - | 113 W/m² | - |
| 1778003138 | 26.11° C | 79% | 1006.6 hPa | 0 mm | - | 87 W/m² | - |
| 1778002834 | 26.11° C | 79% | 1006.9 hPa | 0 mm | - | 99 W/m² | - |
| 1778002531 | 25.56° C | 79% | 1006.9 hPa | 0 mm | - | 138 W/m² | - |
| 1778002228 | 25.56° C | 80% | 1006.7 hPa | 0 mm | - | 89 W/m² | - |
| 1778001926 | 25.56° C | 80% | 1006.8 hPa | 0 mm | - | 122 W/m² | - |
| 1778001621 | 25.56° C | 80% | 1006.8 hPa | 0 mm | - | 107 W/m² | - |
| 1778001317 | 25° C | 82% | 1006.9 hPa | 0 mm | - | 140 W/m² | - |
| 1778001014 | 25° C | 82% | 1007.1 hPa | 0 mm | - | 93 W/m² | - |
| 1778000711 | 25° C | 82% | 1007.2 hPa | 0 mm | - | 77 W/m² | - |
| 1778000407 | 25° C | 82% | 1007.2 hPa | 0 mm | - | 102 W/m² | - |
| 1778000102 | 25° C | 82% | 1007.1 hPa | 0 mm | - | 58 W/m² | - |
| 1777999798 | 24.44° C | 83% | 1007.1 hPa | 0 mm | - | 72 W/m² | - |
| 1777999494 | 25° C | 83% | 1007.3 hPa | 0 mm | - | 70 W/m² | - |
| 1777999193 | 24.44° C | 83% | 1007.1 hPa | 0 mm | - | 70 W/m² | - |
| 1777998891 | 24.44° C | 83% | 1007.3 hPa | 0 mm | - | 93 W/m² | - |
| 1777998590 | 24.44° C | 83% | 1007.1 hPa | 0 mm | - | 80 W/m² | - |
| 1777998285 | 24.44° C | 84% | 1007.3 hPa | 0 mm | - | 68 W/m² | - |
| 1777997982 | 24.44° C | 84% | 1007.1 hPa | 0 mm | - | 108 W/m² | - |
| 1777997679 | 24.44° C | 84% | 1007.2 hPa | 0 mm | - | 59 W/m² | - |
| 1777997377 | 23.89° C | 83% | 1007.2 hPa | 0 mm | - | 75 W/m² | - |
* Rain latest hour (hover to see other rain measurements)
** Current wind speed in m/s (hover to see current wind gust speed)